Location: Altleiningen
(49.5078°N, 8.0741°E)
Time: 11:54:57
(UTC+00:00)

Cosmos 1777 Rocket - Pass Details

Date: 03 March 2021
Orbit: 759 x 775 km, 74.0° (Epoch: 13 April)

Event Time Altitude Azimuth Distance (km) Brightness Sun altitude
Rises 18:26:54 0° 339° (NNW) 3,252 7.6 -12.6°
Reaches altitude 10° 18:29:24 10° 346° (NNW) 2,318 6.7 -13.0°
Maximum altitude 18:34:27 45° 59° (ENE) 1,044 4.3 -13.9°
Enters shadow 18:38:03 18° 125° (SE) 1,813 5.4 -14.4°
